Погода в Звягинках

Россия / Орловская область     52°57′11″N   35°55′45″E
темп.,
°C
ветер,
м/с
пор.,
м/с
влажн.,
%
обл.,
%
осадки,
мм/ч
давл.,
гПа
погр.,
м
21 января, пт
пт2100:00−3ю71496100 0.5 1004629
03:00−4ю61296100 2.1 1002554
06:00−4ю61196100 1.8 1000508
09:00−4ююз51194100 2.7 999437
12:00−4юз61092100 0.1 1000607
15:00−5ююз71292100 0.1 999655
18:00−5ю71591100 0.1 998658
21:00−4ююз81495100 0.8 997838
22 января, сб
сб2200:00−4ююз71394100 0.4 999597
03:00−3юз71295100 1.0 1000631
06:00−4ююз51096100 0.6 1001441
09:00−5ююз589599 0.8 1004253
12:00−4ююз469586 0.3 1006329
15:00−4ююз369597 0.4 1008442
18:00−7ю359794 0.1 101082
21:00−9ю239774 0.2 101244
23 января, вс
вс2300:00−10ююв249787 0.1 101558
03:00−14юв2210095 0.1 101733
06:00−16юв2210096 0.0 102012
09:00−13в239787 0.2 102244
12:00−9в249564 0.1 1025124
15:00−8св359565 0.1 1026148
18:00−13св3896100 0.0 1029108
21:00−14ссв41096100 0.0 1030142
24 января, пн
пн2400:00−12ссв51294100 0.0 1030218
03:00−10ссв61492100 0.0 1030315
06:00−9св71593100 0.1 1029400
09:00−9ссв61294100 0.3 1030357
12:00−8ссв5109594 0.1 1030350
15:00−7св599497 0.1 1029370
18:00−10ссв389797 0.0 1030158
21:00−12ссв359798 0.0 103062
25 января, вт
вт2500:00−15св249899 0.0 102944
03:00−15всв249864 0.0 102750
06:00−17всв2210080 0.0 102732
09:00−17в119997 0.1 102614
12:00−11ююв2395100 0.0 1024136
15:00−9юв239494 0.1 1023198
18:00−11вюв229875 0.1 102233
21:00−10юв249770 0.2 102270